TimeMST,TemperatureF,Dew PointF,Humidity,Sea Level PressureIn,VisibilityMPH,Wind Direction,Wind SpeedMPH,Gust SpeedMPH,PrecipitationIn,Events,Conditions,WindDirDegrees,DateUTC
12:15 AM,48.2,48.2,100,30.47,3.0,SSW,5.8,-,N/A,,Light Drizzle,210,2013-02-13 07:15:00
12:35 AM,48.2,48.2,100,30.47,7.0,Calm,Calm,-,N/A,,Overcast,0,2013-02-13 07:35:00
12:55 AM,48.2,48.2,100,30.47,10.0,Calm,Calm,-,N/A,,Overcast,0,2013-02-13 07:55:00
1:15 AM,48.2,48.2,100,30.47,7.0,WSW,3.5,-,N/A,,Drizzle,250,2013-02-13 08:15:00
1:35 AM,48.2,48.2,100,30.47,3.0,SW,4.6,-,0.01,,Drizzle,230,2013-02-13 08:35:00
1:55 AM,48.2,48.2,100,30.47,3.0,SSW,5.8,-,0.02,Rain,Light Rain,210,2013-02-13 08:55:00
2:15 AM,48.2,48.2,100,30.47,5.0,SW,5.8,-,N/A,Rain,Light Rain,220,2013-02-13 09:15:00
2:35 AM,48.2,48.2,100,30.47,7.0,SW,3.5,-,0.01,,Drizzle,220,2013-02-13 09:35:00
2:55 AM,48.2,48.2,100,30.47,4.0,SSE,3.5,-,0.02,,Drizzle,150,2013-02-13 09:55:00
3:15 AM,48.2,48.2,100,30.47,3.0,SE,3.5,-,0.01,,Heavy Drizzle,140,2013-02-13 10:15:00
3:35 AM,48.2,48.2,100,30.46,4.0,SSE,5.8,-,0.02,,Drizzle,150,2013-02-13 10:35:00
3:55 AM,48.2,48.2,100,30.46,4.0,SSE,4.6,-,0.04,Rain,Rain,150,2013-02-13 10:55:00
4:15 AM,48.2,48.2,100,30.45,3.0,South,4.6,-,0.01,,Drizzle,170,2013-02-13 11:15:00
4:35 AM,48.2,48.2,100,30.45,3.0,Calm,Calm,-,0.01,,Drizzle,0,2013-02-13 11:35:00
4:55 AM,48.2,48.2,100,30.45,3.0,Calm,Calm,-,0.03,,Drizzle,0,2013-02-13 11:55:00
5:15 AM,48.2,48.2,100,30.44,2.5,South,3.5,-,N/A,,Light Drizzle,170,2013-02-13 12:15:00
5:35 AM,48.2,48.2,100,30.44,2.5,SSE,4.6,-,N/A,,Overcast,160,2013-02-13 12:35:00
5:55 AM,48.2,48.2,100,30.44,2.5,Calm,Calm,-,N/A,,Overcast,0,2013-02-13 12:55:00
6:15 AM,48.2,48.2,100,30.44,2.0,South,3.5,-,0.01,,Drizzle,190,2013-02-13 13:15:00
6:35 AM,50.0,50.0,100,30.45,3.0,SW,4.6,-,0.01,,Overcast,220,2013-02-13 13:35:00
6:55 AM,50.0,50.0,100,30.44,3.0,WSW,4.6,-,0.02,,Light Drizzle,250,2013-02-13 13:55:00
7:15 AM,50.0,50.0,100,30.45,4.0,WNW,5.8,-,N/A,,Overcast,290,2013-02-13 14:15:00
7:35 AM,48.2,48.2,100,30.45,7.0,NW,10.4,-,N/A,,Overcast,310,2013-02-13 14:35:00
7:55 AM,48.2,48.2,100,30.46,4.0,NW,9.2,-,N/A,,Overcast,310,2013-02-13 14:55:00
8:15 AM,48.2,48.2,100,30.46,5.0,WNW,8.1,-,N/A,,Overcast,300,2013-02-13 15:15:00
8:35 AM,46.4,46.4,100,30.47,4.0,WNW,10.4,-,N/A,,Overcast,290,2013-02-13 15:35:00
8:55 AM,46.4,46.4,100,30.47,4.0,West,6.9,-,N/A,,Overcast,280,2013-02-13 15:55:00
9:15 AM,46.4,46.4,100,30.48,2.5,WNW,5.8,-,N/A,,Overcast,290,2013-02-13 16:15:00
9:35 AM,46.4,46.4,100,30.48,4.0,West,5.8,-,N/A,,Overcast,280,2013-02-13 16:35:00
9:55 AM,46.4,46.4,100,30.49,5.0,WNW,8.1,-,N/A,,Overcast,300,2013-02-13 16:55:00
10:15 AM,46.4,46.4,100,30.50,10.0,WNW,6.9,-,N/A,,Overcast,290,2013-02-13 17:15:00
10:35 AM,46.4,46.4,100,30.50,10.0,WNW,4.6,-,N/A,,Overcast,290,2013-02-13 17:35:00
10:55 AM,48.2,48.2,100,30.50,10.0,Calm,Calm,-,N/A,,Overcast,0,2013-02-13 17:55:00
11:15 AM,48.2,48.2,100,30.50,10.0,Calm,Calm,-,N/A,,Overcast,0,2013-02-13 18:15:00
11:35 AM,48.2,44.6,87,30.50,10.0,Calm,Calm,-,N/A,,Overcast,0,2013-02-13 18:35:00
11:55 AM,50.0,44.6,82,30.51,10.0,Calm,Calm,-,N/A,,Overcast,0,2013-02-13 18:55:00
12:15 PM,50.0,44.6,82,30.51,10.0,West,3.5,-,N/A,,Overcast,280,2013-02-13 19:15:00
12:35 PM,50.0,42.8,76,30.51,10.0,Calm,Calm,-,N/A,,Overcast,0,2013-02-13 19:35:00
12:55 PM,50.0,42.8,76,30.50,10.0,Calm,Calm,-,N/A,,Overcast,0,2013-02-13 19:55:00
1:15 PM,50.0,44.6,82,30.50,10.0,Calm,Calm,-,N/A,,Overcast,0,2013-02-13 20:15:00
1:35 PM,50.0,42.8,76,30.50,10.0,Calm,Calm,-,N/A,,Overcast,0,2013-02-13 20:35:00
1:55 PM,50.0,44.6,82,30.49,10.0,Calm,Calm,-,N/A,,Overcast,0,2013-02-13 20:55:00
2:15 PM,50.0,42.8,76,30.49,10.0,Calm,Calm,-,N/A,,Overcast,0,2013-02-13 21:15:00
2:35 PM,51.8,42.8,71,30.49,10.0,Calm,Calm,-,N/A,,Overcast,0,2013-02-13 21:35:00
2:55 PM,51.8,42.8,71,30.48,10.0,Calm,Calm,-,N/A,,Overcast,0,2013-02-13 21:55:00
3:15 PM,50.0,42.8,76,30.48,10.0,Calm,Calm,-,N/A,,Overcast,0,2013-02-13 22:15:00
3:35 PM,50.0,42.8,76,30.48,10.0,WNW,3.5,-,N/A,,Overcast,290,2013-02-13 22:35:00
3:55 PM,50.0,44.6,82,30.48,7.0,West,5.8,-,N/A,,Overcast,260,2013-02-13 22:55:00
4:15 PM,50.0,44.6,82,30.48,10.0,West,4.6,-,N/A,,Overcast,260,2013-02-13 23:15:00
4:35 PM,50.0,44.6,82,30.48,10.0,West,4.6,-,N/A,,Overcast,280,2013-02-13 23:35:00
4:55 PM,50.0,44.6,82,30.48,10.0,West,3.5,-,N/A,,Overcast,280,2013-02-13 23:55:00
5:15 PM,50.0,44.6,82,30.48,10.0,Calm,Calm,-,N/A,,Overcast,0,2013-02-14 00:15:00
5:35 PM,50.0,44.6,82,30.48,10.0,WSW,3.5,-,N/A,,Overcast,250,2013-02-14 00:35:00
5:55 PM,50.0,44.6,82,30.49,10.0,West,3.5,-,N/A,,Overcast,280,2013-02-14 00:55:00
6:15 PM,50.0,44.6,82,30.49,10.0,Calm,Calm,-,N/A,,Overcast,0,2013-02-14 01:15:00
6:35 PM,48.2,44.6,87,30.48,10.0,Calm,Calm,-,N/A,,Overcast,0,2013-02-14 01:35:00
6:55 PM,48.2,44.6,87,30.49,10.0,Calm,Calm,-,N/A,,Overcast,0,2013-02-14 01:55:00
7:15 PM,48.2,44.6,87,30.50,10.0,Calm,Calm,-,N/A,,Overcast,0,2013-02-14 02:15:00
7:35 PM,48.2,44.6,87,30.49,10.0,Calm,Calm,-,N/A,,Overcast,0,2013-02-14 02:35:00
7:55 PM,48.2,44.6,87,30.50,10.0,Calm,Calm,-,N/A,,Overcast,0,2013-02-14 02:55:00
8:15 PM,48.2,44.6,87,30.50,10.0,Calm,Calm,-,N/A,,Overcast,0,2013-02-14 03:15:00
8:35 PM,46.4,44.6,93,30.50,10.0,South,3.5,-,N/A,,Overcast,170,2013-02-14 03:35:00
8:55 PM,46.4,44.6,93,30.50,7.0,Calm,Calm,-,N/A,,Overcast,0,2013-02-14 03:55:00
9:15 PM,46.4,44.6,93,30.50,10.0,Calm,Calm,-,N/A,,Overcast,0,2013-02-14 04:15:00
9:35 PM,46.4,44.6,93,30.51,7.0,Calm,Calm,-,N/A,,Overcast,0,2013-02-14 04:35:00
9:55 PM,46.4,44.6,93,30.51,7.0,Calm,Calm,-,N/A,,Overcast,0,2013-02-14 04:55:00
10:15 PM,46.4,44.6,93,30.51,7.0,Calm,Calm,-,N/A,,Overcast,0,2013-02-14 05:15:00
10:35 PM,46.4,44.6,93,30.52,7.0,Calm,Calm,-,N/A,,Overcast,0,2013-02-14 05:35:00
10:55 PM,46.4,44.6,93,30.52,10.0,Calm,Calm,-,N/A,,Overcast,0,2013-02-14 05:55:00
11:15 PM,46.4,44.6,93,30.52,10.0,Calm,Calm,-,N/A,,Overcast,0,2013-02-14 06:15:00
11:35 PM,46.4,44.6,93,30.52,10.0,Calm,Calm,-,N/A,,Overcast,0,2013-02-14 06:35:00
11:55 PM,46.4,44.6,93,30.52,10.0,Calm,Calm,-,N/A,,Overcast,0,2013-02-14 06:55:00